Regional Weather Roundup
Issued by NWS

Home | Current Version | Previous Version | Text Only | Print | Product List | Glossary On
Versions: 1 2 3 4 5 6 7 8 9 10 11 12 13 14 15 16 17 18 19 20 21 22 23 24 25 26 27 28 29 30 31 32 33 34 35 36 37 38 39 40 41 42 43 44 45 46 47 48 49 50
000
ASUS44 KLUB 261401
RWRTX
WEST TEXAS WEATHER ROUNDUP
NATIONAL WEATHER SERVICE LUBBOCK TX
900 AM CDT WED APR 26 2017

NOTE: "FAIR" INDICATES FEW OR NO CLOUDS BELOW 12,000 FEET WITH NO
SIGNIFICANT WEATHER AND/OR OBSTRUCTIONS TO VISIBILITY.

TXZ004-006>008-010-012-014-016-OKZ002-261500-
TEXAS PANHANDLE/OKLAHOMA PANHANDLE

CITY           SKY/WX    TMP DP  RH WIND       PRES   REMARKS
AMARILLO       CLOUDY    40  37  89 N23       29.78S WCI  30
BORGER         CLOUDY    42  38  85 N17       29.80S
CANADIAN       CLOUDY    43  41  91 N15G22    29.76R
DALHART        CLOUDY    43  39  86 N24G31    29.82R
DUMAS          CLOUDY    39  37  95 N18G29    29.79R WCI  29
GUYMON         CLOUDY    41  35  79 N21G28    29.80S
HEREFORD       CLOUDY    41  40  97 N22G35    29.80S
PAMPA          CLOUDY    41  38  89 N24G31    29.77S
PERRYTON       PTSUNNY   42  36  79 N23G31    29.76S
$$

TXZ026-029-035-045-048-261500-
SOUTHERN PANHANDLE/SOUTH PLAINS/ROLLING PLAINS

CITY           SKY/WX    TMP DP  RH WIND       PRES   REMARKS
CHILDRESS      CLOUDY    49  41  74 N25G35    29.72R
SEMINOLE       SUNNY     54  40  59 N26G36    29.80R
LUBBOCK        MOSUNNY   48  37  65 N31G46    29.72R
PLAINVIEW      LGT RAIN  40  39  99 N24G31    29.73F WCI  29
SNYDER         SUNNY    N/A N/A N/A W23G29    29.67R
$$

TXZ052-054-060>062-072-078-127-140-154-169-261500-
PERMIAN BASIN/CONCHO VALLEY/BIG COUNTRY/EDWARDS PLATEAU

CITY           SKY/WX    TMP DP  RH WIND       PRES   REMARKS
ABILENE        SUNNY     60  52  74 SW8       29.60S
BIG SPRING     SUNNY     62  32  33 W25G32    29.73R
JUNCTION       SUNNY     73  44  35 W10G21    29.64R
MIDLAND        SUNNY     63  29  27 NW29G37   29.74R
ODESSA         SUNNY     63  28  26 NW29G38   29.76R
SAN ANGELO     SUNNY     69  39  33 W16G24    29.66R
SONORA         SUNNY     70  39  32 VRB7G14   29.73R
SWEETWATER     SUNNY     64  41  43 W17G24    29.68R
WINK           SUNNY     64  27  24 NW17G26   29.78R
$$

TXZ055-058-074-075-080-082-261500-
FAR WEST/SOUTHWEST MOUNTAINS/TRANS PECOS

CITY           SKY/WX    TMP DP  RH WIND       PRES   REMARKS
ALPINE         CLOUDY    63  28  26 NW17G25   29.93R
DRYDEN           N/A     74  31  20 NW14      29.73R
EL PASO        MOSUNNY   62  20  19 NW16G22   29.88R
FORT STOCKTON  CLOUDY    66  35  31 W14       29.79R
GUADALUPE PASS SUNNY     52  24  33 W25       29.88R
MARFA          CLOUDY    60  30  32 NW17      29.92R
PECOS          CLOUDY    65  36  34 W8        29.79R
PRESIDIO       FAIR      74  33  22 NW25G37   29.82R
$$

TXZ014-016-019-021>030-083-261500
TEXAS TECH WEST TEXAS MESONET/TEXAS PANHANDLE/NORTHERN SOUTH PLAINS

CITY           SKY/WX    TMP DP  RH WIND       PRES   REMARKS
ABERNATHY 5ENE   N/A     42  40  90 N28       29.75R
AMARILLO 9NNE    N/A     40  37  89 N21       29.80S WCI  30
AMARILLO 7SSE    N/A     39  37  90 N20       29.79S WCI  30
AMHERST 1NE      N/A     43  40  87 N25       29.79R
BOOTLEG 11WNW    N/A     40  38  94 N13       29.84S WCI  32
CANADIAN 6E    LGT RAIN  41  39  92 NW17      29.73R
CAPROCK CYN SP   N/A     43  40  91 N23       29.76R
CHILDRESS 2NNE   N/A     47  42  82 N18       29.71R
CLARENDON 2WSW   N/A     41  37  86 N23       29.75R
CLAUDE 12SW      N/A     39  37  91 N28       29.75R WCI  28
DIMMITT 2NE      N/A     39  37  93 N23       29.79R WCI  29
FLOYDADA 2NNE  RAIN      39  38  96 N24       29.76R WCI  28
FRIONA 2NE       N/A     40  37  90 N17       29.82R WCI  31
GOODLETT 3W      N/A     49  42  79 N21       29.70R
HART 3N          N/A     41  38  91 N24       29.77R
HEREFORD 2NW     N/A     39  36  89 N17       29.81R WCI  30
MEMPHIS 1NE      N/A     46  40  79 N22       29.72R
MULESHOE 2SSW    N/A     42  38  84 N15       29.81R
OLTON 6S         N/A     43  39  85 N24       29.76R
PALO DURO SP     N/A     40  36  87 N22       29.78S WCI  30
PAMPA 2E         N/A     39  38  96 NW22      29.75F WCI  28
PLAINVIEW 1S     N/A     42  39  92 N18       29.75F
SILVERTON 7ESE LGT RAIN  40  38  93 N23       29.76R WCI  30
TULIA 2ENE       N/A     41  40  97 N18       29.77S
TURKEY 2WSW      N/A     43  41  93 N28       29.74R
UMBARGER 3NNE    N/A     39  35  87 N28       29.80S WCI  28
$$

TXZ033>036-039>041-045>048-261500
TEXAS TECH WEST TEXAS MESONET/SOUTH PLAINS

CITY           SKY/WX    TMP DP  RH WIND       PRES   REMARKS
AIKEN 3WSW       N/A     41  40  93 N25       29.78S
ANDREWS 2NE      N/A     59  32  37 NW22      29.77R
ANTON 6SSW       N/A     47  38  73 N29       29.77R
BROWNFIELD 2S    N/A     52  41  66 NW30G40   29.75R
DENVR CTY 7WNW   N/A     49  37  64 N28       29.79R
GAIL 2ESE        N/A     61  36  39 W23       29.67R
LAMESA 2SE       N/A     57  42  56 NW25      29.73R
LUBBOCK 3WNW     N/A     47  36  66 N24G35    29.75R
MORTON 1ENE      N/A     46  37  70 N24       29.81R
ODONNELL 1N      N/A     56  39  53 NW29      29.73R
PLAINS 3N        N/A     49  37  63 N28G39    29.79R
RALLS 1SE        N/A     44  39  84 N31G44    29.74R
REESE CENTER     N/A     46  37  70 N26G37    29.76R
SEAGRAVES 1SW    N/A     52  41  64 NW25      29.78R
SEMINOLE 2NNE    N/A     53  38  57 NW24G36   29.78R
SLATON 2NE       N/A     48  41  75 N26G40    29.73R
SNYDER 3E        N/A     62  36  37 W23       29.65R
SUNDOWN 8SW      N/A     47  39  73 N29G39    29.78R
TAHOKA 3NNE      N/A     52  40  64 N28       29.74R
WOLFFORTH 6SSW   N/A     49  38  66 N31       29.75R
$$

TXZ031-032-036>038-042>044-261500-
TEXAS TECH WEST TEXAS MESONET/ROLLING PLAINS

CITY           SKY/WX    TMP DP  RH WIND       PRES   REMARKS
ASPERMONT 3NE    N/A     57  50  77 N12       29.66S
FLUVANNA 3WNW    N/A     60  35  38 W25       29.66R
GRAHAM 5SSW      N/A     57  44  62 NW29      29.69R
GUTHRIE 10WSW    N/A     51  47  84 N13       29.67R
HASKELL 1NW      N/A     56  48  73 NW21      29.64R
JAYTON 1SSE      N/A     56  50  81 N10       29.67R
KNOX CITY 3NW    N/A     56  48  74 NW17      29.67R
LK A HENRY 1NW   N/A     63  38  40 NW21      29.66R
NORTHFIELD 1S    N/A     47  43  85 N20       29.73R
ODELL 4ENE       N/A     49  45  83 N20       29.69R
PADUCAH 10SW     N/A     50  46  85 N18       29.69R
POST 1NE         N/A     55  40  57 NW29G43   29.71R
RRING SPRGS 3N LGT RAIN  47  46  96 N22G32    29.71R
SEYMOUR 3NW      N/A     56  48  75 NW20      29.63R
SPUR 1W          N/A     51  46  83 N15       29.69R
WEINERT 2NNE     N/A     56  49  78 NW15      29.65R
WHITE RVR 6NE    N/A     48  41  77 NW28      29.71R
$$

TXZ052-054-060>062-072-078-127-140-154-169-261500-
TEXAS TECH WEST TEXAS MESONET/PERMIAN BASIN/
CONCHO VALLEY/BIG COUNTRY/EDWARDS PLATEAU

CITY           SKY/WX    TMP DP  RH WIND       PRES   REMARKS
COYANOSA 2N      N/A     67  36  31 NW10      29.79R
JUNCTION 1SSW    N/A     73  44  35 NW9       29.65R
MERTZON 3NNE     N/A     67  36  31 W16       29.70R
SAN ANGELO 7NW   N/A     67  36  32 W15       29.66S
STRLNG CT 4WSW   N/A     65  31  28 W13       29.69S
ST LAWRNCE 5SW   N/A     64  29  27 W24       29.72R
SWEETWATR 11SW   N/A     63  38  40 W18       29.66S
WALL 1E          N/A     69  42  37 W20       29.67R
$$

TXZ055-058-074-075-080-082-261500-
TEXAS TECH WEST TEXAS MESONET/FAR WEST/SOUTHWEST MOUNTAINS/TRANS PECOS

CITY           SKY/WX    TMP DP  RH WIND       PRES   REMARKS
PRSMN GAP BBNP   N/A     74  36  25 N13       29.78R
GUADLPE MTN NP   N/A     54  20  27 W17       29.89R
$$




USA.gov is the U.S. government's official web portal to all federal, state and local government web resources and services.